Weather History for Bluefield, WV

Change the Weather History Date:

Wednesday, March 20, 2013

  Actual Average Record
Temperature  
Mean Temperature 37 °F 46 °F  
Max Temperature 47 °F 56 °F 82 °F (2012)
Min Temperature 27 °F 37 °F 10 °F (1965)
Degree Days  
Heating Degree Days 28 19  
Month to date heating degree days 534 432  
Since 1 July heating degree days 3936 3925  
Cooling Degree Days 0 0  
Month to date cooling degree days 0 0  
Year to date cooling degree days 1 0  
Moisture  
Dew Point 15 °F    
Average Humidity 52    
Maximum Humidity 85    
Minimum Humidity 19    
Precipitation  
Precipitation 0.06 in 0.12 in 0.58 in (1998)
Month to date precipitation 2.28 2.25  
Year to date precipitation 9.95 7.91  
Snow  
Snow 1.60 in - - ()
Month to date snowfall 7.4  
Since 1 July snowfall 48.5  
Snow Depth 2.00 in    
Sea Level Pressure  
Sea Level Pressure 29.90 in    
Wind  
Wind Speed 11 mph (WNW)    
Max Wind Speed 25 mph    
Max Gust Speed 35 mph    
Visibility 7 miles    
Events Snow    
T = Trace of Precipitation, MM = Missing Value Source: NWS Daily Summary

Daily Weather History Graph

Daily Weather History Graph

Search for Another Location

Airport:

Trip Planner

Search our weather history database for the weather conditions in past years. The results will help you decide how hot, cold, wet, or windy it might be!

Date:

Astronomy

Mar. 20, 2013 Rise Set
Actual Time 7:28 AM EDT 7:36 PM EDT
Civil Twilight 7:02 AM EDT 8:02 PM EDT
Nautical Twilight 6:31 AM EDT 8:33 PM EDT
Astronomical Twilight 6:00 AM EDT 9:04 PM EDT
Moon 1:17 PM EDT (3/20) 2:59 AM EDT (3/20)
Length of Visible Light 13h 00m
Length of Day
12h 08m
First Quarter, 59% of the Moon is Illuminated
Mar 20
First Quarter
Mar 27
Full
Apr 3
Last Quarter
Apr 10
New
Apr 18
First Quarter

Hourly Weather History & Observations

Time (EDT) Temp. Windchill Dew Point Humidity Pressure Visibility Wind Dir Wind Speed Gust Speed Precip Events Conditions
12:52 AM 34.0 °F 28.0 °F 1.9 °F 26% 30.04 in 10.0 mi West 6.9 mph - N/A   Clear
1:52 AM 33.1 °F 26.9 °F 3.9 °F 29% 30.03 in 10.0 mi WNW 6.9 mph - N/A   Clear
2:52 AM 32.0 °F 25.6 °F 6.1 °F 34% 30.04 in 10.0 mi West 6.9 mph - N/A   Clear
3:52 AM 30.9 °F 24.3 °F 8.1 °F 38% 30.03 in 10.0 mi WNW 6.9 mph - N/A   Clear
4:52 AM 30.0 °F 23.2 °F 8.1 °F 40% 30.01 in 10.0 mi West 6.9 mph - N/A   Clear
5:52 AM 28.9 °F 22.8 °F 9.0 °F 43% 30.02 in 10.0 mi West 5.8 mph - N/A   Clear
6:52 AM 28.0 °F 21.7 °F 10.0 °F 47% 30.03 in 10.0 mi West 5.8 mph - N/A   Clear
7:52 AM 28.0 °F 20.8 °F 10.0 °F 47% 30.04 in 10.0 mi West 6.9 mph - N/A   Clear
8:52 AM 30.9 °F 23.5 °F 10.9 °F 43% 30.05 in 10.0 mi West 8.1 mph - N/A   Clear
9:52 AM 33.1 °F 23.9 °F 10.9 °F 40% 30.05 in 10.0 mi West 12.7 mph 17.3 mph N/A   Clear
10:52 AM 35.1 °F 26.4 °F 7.0 °F 31% 30.04 in 10.0 mi WNW 12.7 mph 19.6 mph N/A   Clear
11:52 AM 39.9 °F 32.9 °F 10.0 °F 29% 30.01 in 10.0 mi WNW 11.5 mph 18.4 mph N/A   Clear
12:52 PM 41.0 °F 33.1 °F 9.0 °F 27% 29.98 in 10.0 mi West 15.0 mph 26.5 mph N/A   Clear
1:52 PM 43.0 °F 36.8 °F 7.0 °F 23% 29.94 in 10.0 mi West 11.5 mph 28.8 mph N/A   Partly Cloudy
2:52 PM 46.0 °F 39.3 °F 7.0 °F 20% 29.88 in 10.0 mi WSW 16.1 mph 26.5 mph N/A   Partly Cloudy
3:52 PM 46.0 °F 38.8 °F 6.1 °F 20% 29.85 in 10.0 mi NW 18.4 mph 29.9 mph N/A   Mostly Cloudy
4:52 PM 45.0 °F 37.9 °F 5.0 °F 19% 29.83 in 10.0 mi West 16.1 mph 28.8 mph N/A   Mostly Cloudy
5:52 PM 45.0 °F 38.5 °F 6.1 °F 20% 29.81 in 10.0 mi West 13.8 mph 32.2 mph N/A   Scattered Clouds
6:52 PM 43.0 °F 35.4 °F 7.0 °F 23% 29.80 in 10.0 mi West 16.1 mph 27.6 mph N/A   Scattered Clouds
7:52 PM 39.9 °F 33.9 °F 10.0 °F 29% 29.81 in 10.0 mi WNW 9.2 mph 28.8 mph N/A   Mostly Cloudy
8:52 PM 39.9 °F 31.4 °F 12.9 °F 33% 29.81 in 10.0 mi WNW 16.1 mph 23.0 mph N/A   Overcast
9:43 PM 33.8 °F 25.3 °F 26.6 °F 75% 29.81 in 2.5 mi WNW 11.5 mph 19.6 mph 0.00 in Snow Light Snow
9:58 PM 32.0 °F 24.2 °F 26.6 °F 80% 29.81 in 1.0 mi WNW 9.2 mph 24.2 mph 0.00 in Snow Light Snow
10:06 PM 30.2 °F 22.6 °F 26.6 °F 86% 29.81 in 0.8 mi WNW 8.1 mph - 0.01 in Snow Light Snow
10:17 PM 30.2 °F 22.6 °F 26.6 °F 86% 29.82 in 0.8 mi WNW 8.1 mph 17.3 mph 0.01 in Snow Light Snow
10:40 PM 30.2 °F 21.9 °F 24.8 °F 80% 29.82 in 0.5 mi WNW 9.2 mph 19.6 mph 0.03 in Snow Snow
10:44 PM 30.2 °F 21.3 °F 26.6 °F 86% 29.82 in 1.2 mi WNW 10.4 mph 19.6 mph 0.03 in Snow Light Snow
10:48 PM 30.2 °F 21.9 °F 26.6 °F 86% 29.82 in 2.5 mi NW 9.2 mph - 0.03 in Snow Light Snow
10:50 PM 30.2 °F 22.6 °F 24.8 °F 80% 29.82 in 3.0 mi WNW 8.1 mph - 0.03 in Snow Light Snow
10:52 PM 30.0 °F 22.4 °F 25.0 °F 82% 29.86 in 3.0 mi NW 8.1 mph - 0.03 in Snow Light Snow
10:57 PM 30.2 °F 22.6 °F 24.8 °F 80% 29.82 in 1.8 mi NW 8.1 mph - 0.01 in Snow Light Snow
11:02 PM 30.2 °F 20.8 °F 24.8 °F 80% 29.82 in 0.8 mi NW 11.5 mph - 0.01 in Snow Light Snow
11:16 PM 28.4 °F 22.2 °F 24.8 °F 86% 29.82 in 1.0 mi WNW 5.8 mph - 0.01 in Snow Light Snow
11:20 PM 28.4 °F 19.7 °F 24.8 °F 86% 29.82 in 1.2 mi WNW 9.2 mph - 0.01 in Snow Light Snow
11:52 PM 28.9 °F 21.9 °F 24.1 °F 82% 29.83 in 1.8 mi WNW 6.9 mph - 0.02 in Snow Light Snow